Location: ??????
(55.2000°N, 38.3000°E)
Time: 08:41:09
(UTC+00:00)

SL-16 R/B - Pass Details

Date: 15 November 2025
Orbit: 841 x 844 km, 71.0° (Epoch: 14 December)

Event Time Altitude Azimuth Distance (km) Brightness Sun altitude
Exits shadow 00:44:46 22° 12° (NNE) 1,789 4.1 -35.7°
Drops below altitude 10° 00:46:59 10° 27° (NNE) 2,478 5.1 -35.4°
Sets 00:49:39 0° 36° (NE) 3,416 6.1 -35.1°
